This demonstration page uses our WeatherBlox Daily Observations layout. Learn more.

Left ArrowRight Arrow

38.20091, -84.87328

Hourly Observations for August 7, 2017

Temp ( °F °C ) Dew Point ( °F °C ) Humidity (%) Winds ( mph kmh ) Pressure ( in mb ) Visibility ( mi km ) Precip ( " mm )
12:45 am 00:45 Cloudy with Heavy Rain 64 17.8 62 16.7 93 93 SE 6 9 30.03 1017 3 4 0.23 5.84
12:53 am 00:53 Cloudy with Rain 65 18.3 62 16.7 90 90 SE 8 13 30.01 1016 3 5 0.26 6.60
1:08 am 01:08 Cloudy with Rain 65 18.3 62 16.7 90 90 SE 7 11 30.03 1017 4 6 0.03 0.76
1:33 am 01:33 Cloudy with Light Rain 65 18.3 62 16.7 90 90 ESE 8 13 30.00 1016 7 11 0.06 1.52
1:53 am 01:53 Mostly Cloudy with Light Rain 65 18.3 62 16.7 90 90 E 5 7 29.97 1015 10 16 0.06 1.52
2:53 am 02:53 Mostly Cloudy 66 18.9 62 16.7 87 87 ESE 7 11 29.95 1014 10 16 0.02 0.51
3:53 am 03:53 Mostly Cloudy 65 18.3 62 16.7 90 90 E 6 9 29.92 1013 10 16 0.00 0.03
4:53 am 04:53 Partly Cloudy 65 18.3 62 16.7 90 90 E 3 6 29.92 1013 10 16 0.00 0.00
5:53 am 05:53 Mostly Clear 64 17.8 61 16.1 90 90 E 5 7 29.91 1013 10 16 0.00 0.00
6:51 am 06:51 Partly Cloudy 64 18 63 17 94 94 Calm 29.94 1014 10 16 0.00 0.00
6:53 am 06:53 Partly Cloudy 65 18.3 62 16.7 90 90 Calm 29.92 1013 10 16 0.00 0.00
7:48 am 07:48 Cloudy 66 19 63 17 88 88 NE 5 7 29.94 1014 10 16 0.00 0.00
7:53 am 07:53 Cloudy 65 18.3 62 16.7 90 90 ENE 3 6 29.93 1013 10 16 0.00 0.00
8:16 am 08:16 Cloudy 66 18.9 62 16.7 87 87 ENE 6 9 29.94 1014 10 16 0.00 0.00
8:53 am 08:53 Cloudy 66 18.9 63 17.2 90 90 ENE 5 7 29.93 1014 10 16 0.00 0.00
9:53 am 09:53 Cloudy 67 19.4 63 17.2 87 87 N 5 7 29.94 1014 10 16 0.00 0.00
10:53 am 10:53 Cloudy 68 20 64 17.8 87 87 VRB 3 6 29.94 1014 10 16 0.00 0.00
11:08 am 11:08 Cloudy 69 20.6 64 17.8 84 84 N 6 9 29.94 1014 10 16 0.00 0.00
11:53 am 11:53 Cloudy 69 20.6 64 17.8 84 84 N 6 9 29.95 1014 10 16 0.00 0.00
12:04 pm 12:04 Cloudy 69 20.6 64 17.8 84 84 VRB 5 7 29.94 1014 10 16 0.00 0.00
12:17 pm 12:17 Cloudy 70 21.1 65 18.3 84 84 NNE 3 6 29.94 1014 8 13 0.00 0.00
12:53 pm 12:53 Cloudy 70 21.1 65 18.3 84 84 N 7 11 29.95 1014 10 16 0.00 0.00
1:17 pm 13:17 Cloudy 71 21.7 65 18.3 81 81 NNW 7 11 29.94 1014 10 16 0.00 0.00
1:53 pm 13:53 Cloudy 72 22.2 65 18.3 79 79 N 5 7 29.96 1015 10 16 0.00 0.00
2:00 pm 14:00 Cloudy 72 22.2 65 18.3 79 79 VRB 5 7 29.94 1014 10 16 0.00 0.00
2:20 pm 14:20 Cloudy 73 22.8 65 18.3 76 76 VRB 6 9 29.94 1014 10 16 0.00 0.00
2:53 pm 14:53 Cloudy 73 22.8 65 18.3 76 76 NNE 6 9 29.95 1014 10 16 0.00 0.00
3:53 pm 15:53 Cloudy 75 23.9 65 18.3 71 71 N 8 13 29.95 1014 10 16 0.00 0.00
4:37 pm 16:37 Cloudy 75 23.9 64 17.8 69 69 N 5 7 29.94 1014 10 16 0.00 0.00
4:49 pm 16:49 Cloudy 73 23 64 18 74 74 NNE 5 7 29.94 1014 10 16 0.00 0.00
4:53 pm 16:53 Cloudy 74 23.3 64 17.8 71 71 N 7 11 29.95 1014 10 16 0.00 0.00
5:04 pm 17:04 Cloudy 74 23.3 64 17.8 71 71 N 6 9 29.94 1014 10 16 0.00 0.00
5:53 pm 17:53 Cloudy 73 22.8 64 17.8 74 74 NNW 9 15 29.96 1015 10 16 0.00 0.00
6:53 pm 18:53 Cloudy 73 22.8 63 17.2 71 71 NNE 5 7 29.96 1014 10 16 0.00 0.00
7:53 pm 19:53 Cloudy 73 22.8 64 17.8 74 74 N 5 7 29.97 1015 10 16 0.00 0.00
8:53 pm 20:53 Mostly Clear 72 22.2 64 17.8 76 76 Calm 29.98 1015 10 16 0.00 0.00
9:53 pm 21:53 Clear 68 20 64 17.8 87 87 Calm 30.00 1016 10 16 0.00 0.00
10:53 pm 22:53 Clear 66 18.9 62 16.7 87 87 NNW 3 6 30.01 1016 10 16 0.00 0.00
11:53 pm 23:53 Clear 65 18.3 61 16.1 87 87 Calm 30.03 1017 10 16 0.00 0.00

Powered by AerisWeather